If you wish to contribute or participate in the discussions about articles you are invited to join SKYbrary as a registered user

 Actions

Arctic Village Airport

From SKYbrary Wiki

PARC
Airport
ICAO: PARC – IATA: ARC
Summary
Name Arctic Village Airport
Region North America
Territory Alaska US.gif
Location , Alaska
Serving Arctic Village
Elevation 637.642 m
2,092 ft
2,092 ft637.642 m
Type medium airport
Coordinates 68° 6' 52.92", -145° 34' 44.4"
Runways
Designator Length Width Surface ROPS
2/20 1372 m4,501.312 ft 23 m75.459 ft GVL /


METAR
Observation PARC 260809Z AUTO 01003KT 10SM FEW018 OVC030 M04/M06 A3012 RMK AO2 FZRANO
Station Arctic Village, Arctic Village Airport
Date/Time 26 September 2018 08:09:00
Wind direction 10°
Wind speed 03 kts
Lowest cloud amount few clouds
Temperature
Dew point
Humidity 85%
QNH hPa
Weather condition n/a